Location: Eyeline Observatory
(43.2182°N, 78.8632°W)
Time: 13:51:23
(UTC-05:00)

Tiangong 1 - Pass Details

Date: 12 October 2017
Orbit: 275 x 302 km, 42.8° (Epoch: 14 December)

Event Time Altitude Azimuth Distance (km) Brightness Sun altitude
Rises 19:29:33 0° 275° (W) 2,089 7.0 -10.4°
Reaches altitude 10° 19:31:35 10° 273° (W) 1,241 5.2 -10.7°
Maximum altitude 19:34:21 72° 189° (S) 337 0.7 -11.2°
Enters shadow 19:35:59 21° 106° (ESE) 776 2.0 -11.5°
